User: anonymous   Login
Location: Dover
(39.1580°N, 75.5250°W)
Time: 09:01:59
(UTC-04:00)
Language:

SeaSat 1 - Orbit

View from above orbital plane
View from above orbital plane
View from above satellite
View from above satellite

Ground track
Ground track

The orbit data is extracted from the following two-line orbital elements,

1 10967U 78064A   16126.73914913  .00000027  00000-0  48297-4 0  9994
2 10967 108.0014 168.2265 0002734 248.9825 111.1027 14.43542820987801
Epoch (UTC): 05 May 2016 17:44:22
Eccentricity: 0.0002734
inclination: 108.0014°
perigee height: 745 km
apogee height: 749 km
right ascension of ascending node: 168.2265°
argument of perigee: 248.9825°
revolutions per day: 14.43542820
mean anomaly at epoch: 111.1027°
orbit number at epoch: 98780

The dashed part of the orbit path shows where the satellite is in the earth's shadow,  

DLR